,,,PA_Meas_PMT16A,,PR_Meas_QMR101_102,,RH_Meas_QMH101,,SR_Meas_QMS101,,TA_Meas_QMH101,,GenWind,,GenWind,
date,time,status,PA,status,PR,status,RH,status,SR,status,TA,status,DirAvg,status,SpdAvg,
2011-01-31, 00:00:04,VALID,1002.68,VALID,0,INVALID,163.716,VALID,0,VALID,23.8982,VALID,5,VALID,0.414453,
2011-01-31, 00:01:04,VALID,1002.67,VALID,0,INVALID,163.731,VALID,0,VALID,23.9159,VALID,5,VALID,0.462891,
2011-01-31, 00:02:04,VALID,1002.67,VALID,0,INVALID,163.716,VALID,0,VALID,23.9566,VALID,5,VALID,0.284375,
2011-01-31, 00:03:04,VALID,1002.63,VALID,0,INVALID,163.708,VALID,0,VALID,23.9548,VALID,5,VALID,0.251172,
2011-01-31, 00:04:04,VALID,1002.63,VALID,0,INVALID,163.723,VALID,0,VALID,23.9761,VALID,5,VALID,0.419531,
2011-01-31, 00:05:04,VALID,1002.63,VALID,0,INVALID,163.708,VALID,0,VALID,23.9742,VALID,5,VALID,0.0730469,
2011-01-31, 00:06:04,VALID,1002.61,VALID,0,INVALID,163.716,VALID,0,VALID,23.9742,VALID,5,VALID,0.195313,
2011-01-31, 00:07:04,VALID,1002.57,VALID,0,INVALID,163.701,VALID,0,VALID,23.9761,VALID,5,VALID,0.343359,
2011-01-31, 00:08:04,VALID,1002.56,VALID,0,INVALID,163.708,VALID,0,VALID,23.9566,VALID,5,VALID,0.440234,
2011-01-31, 00:09:04,VALID,1002.55,VALID,0,INVALID,163.716,VALID,0,VALID,23.914,VALID,5,VALID,0.469531,
2011-01-31, 00:10:04,VALID,1002.54,VALID,0,INVALID,163.701,VALID,0,VALID,23.9159,VALID,5,VALID,0.6125,
2011-01-31, 00:11:04,VALID,1002.51,VALID,0,INVALID,163.708,VALID,0,VALID,23.9159,VALID,5,VALID,0.640625,
2011-01-31, 00:12:04,VALID,1002.49,VALID,0,INVALID,163.708,VALID,0.100563,VALID,23.9159,VALID,5,VALID,0.647266,
2011-01-31, 00:13:04,VALID,1002.48,VALID,0,INVALID,163.716,VALID,0.100563,VALID,23.9353,VALID,5,VALID,0.619141,
2011-01-31, 00:14:04,VALID,1002.48,VALID,0,INVALID,163.731,VALID,0.100563,VALID,23.9742,VALID,5,VALID,0.336328,
2011-01-31, 00:15:04,VALID,1002.48,VALID,0,INVALID,163.693,VALID,0.100563,VALID,23.9724,VALID,5,VALID,0.308203,
2011-01-31, 00:16:04,VALID,1002.49,VALID,0,INVALID,163.716,VALID,0,VALID,23.9937,VALID,5,VALID,0.0308594,
2011-01-31, 00:17:04,VALID,1002.44,VALID,0,INVALID,163.708,VALID,0.100563,VALID,23.9742,VALID,5,VALID,0,
2011-01-31, 00:18:04,VALID,1002.47,VALID,0,INVALID,163.708,VALID,0.100563,VALID,23.9937,VALID,5,VALID,0.00078125,
2011-01-31, 00:19:04,VALID,1002.46,VALID,0,INVALID,163.708,VALID,0,VALID,23.9742,VALID,5,VALID,0.271484,
2011-01-31, 00:20:04,VALID,1002.47,VALID,0,INVALID,163.701,VALID,0.100563,VALID,23.9937,VALID,5,VALID,0.173047,
2011-01-31, 00:21:04,VALID,1002.45,VALID,0,INVALID,163.693,VALID,0.100563,VALID,23.9937,VALID,5,VALID,0.223047,
2011-01-31, 00:22:04,VALID,1002.46,VALID,0,INVALID,163.708,VALID,0.100563,VALID,23.9742,VALID,5,VALID,0.2375,
2011-01-31, 00:23:04,VALID,1002.44,VALID,0,INVALID,163.693,VALID,0,VALID,23.9548,VALID,5,VALID,0.0925781,
2011-01-31, 00:24:04,VALID,1002.43,VALID,0,INVALID,163.708,VALID,0.100563,VALID,23.9353,VALID,5,VALID,0,
2011-01-31, 00:25:04,VALID,1002.42,VALID,0,INVALID,163.723,VALID,0,VALID,23.914,VALID,5,VALID,0.228125,
2011-01-31, 00:26:04,VALID,1002.4,VALID,0,INVALID,163.693,VALID,0.100563,VALID,23.9353,VALID,5,VALID,0.0367187,
2011-01-31, 00:27:04,VALID,1002.42,VALID,0,INVALID,163.701,VALID,0,VALID,23.9371,VALID,5,VALID,0,
2011-01-31, 00:28:04,VALID,1002.45,VALID,0,INVALID,163.731,VALID,0,VALID,23.8964,VALID,5,VALID,0,
2011-01-31, 00:29:04,VALID,1002.45,VALID,0,INVALID,163.708,VALID,0,VALID,23.8964,VALID,5,VALID,0,
2011-01-31, 00:30:04,VALID,1002.46,VALID,0,INVALID,163.701,VALID,0,VALID,23.8769,VALID,5,VALID,0.351563,
2011-01-31, 00:31:04,VALID,1002.49,VALID,0,INVALID,163.723,VALID,0,VALID,23.9177,VALID,5,VALID,0.404687,
2011-01-31, 00:32:05,VALID,1002.51,VALID,0,INVALID,163.701,VALID,0,VALID,23.8575,VALID,5,VALID,0.465625,
2011-01-31, 00:33:05,VALID,1002.49,VALID,0,INVALID,163.716,VALID,0,VALID,23.838,VALID,5,VALID,0.329688,
2011-01-31, 00:34:05,VALID,1002.51,VALID,0,INVALID,163.685,VALID,0.100563,VALID,23.8398,VALID,5,VALID,0.266406,
2011-01-31, 00:35:05,VALID,1002.47,VALID,0,INVALID,163.731,VALID,0,VALID,23.838,VALID,5,VALID,0.242969,
2011-01-31, 00:36:05,VALID,1002.42,VALID,0,INVALID,163.701,VALID,0,VALID,23.8185,VALID,5,VALID,0.26875,
2011-01-31, 00:37:05,VALID,1002.41,VALID,0,INVALID,163.708,VALID,0.100563,VALID,23.838,VALID,5,VALID,0.384766,
2011-01-31, 00:38:05,VALID,1002.39,VALID,0,INVALID,163.723,VALID,0,VALID,23.8185,VALID,5,VALID,0.3875,
2011-01-31, 00:39:05,VALID,1002.4,VALID,0,INVALID,163.708,VALID,0.100563,VALID,23.838,VALID,5,VALID,0.373437,
2011-01-31, 00:40:05,VALID,1002.39,VALID,0,INVALID,163.731,VALID,0,VALID,23.7973,VALID,5,VALID,0.390234,
2011-01-31, 00:41:05,VALID,1002.4,VALID,0,INVALID,163.708,VALID,0,VALID,23.8575,VALID,5,VALID,0.566406,
2011-01-31, 00:42:05,VALID,1002.38,VALID,0,INVALID,163.716,VALID,0,VALID,23.8575,VALID,5,VALID,0.468359,
2011-01-31, 00:43:05,VALID,1002.34,VALID,0,INVALID,163.708,VALID,0.100563,VALID,23.8769,VALID,5,VALID,0.464844,
2011-01-31, 00:44:05,VALID,1002.36,VALID,0,INVALID,163.723,VALID,0.100563,VALID,23.9159,VALID,5,VALID,0.561719,
2011-01-31, 00:45:05,VALID,1002.32,VALID,0,INVALID,163.723,VALID,0.100563,VALID,23.9548,VALID,5,VALID,0.385547,
2011-01-31, 00:46:05,VALID,1002.29,VALID,0,INVALID,163.701,VALID,0.100563,VALID,23.9761,VALID,5,VALID,0.606641,
2011-01-31, 00:47:05,VALID,1002.26,VALID,0,INVALID,163.701,VALID,0.100563,VALID,23.9159,VALID,5,VALID,0.619531,
2011-01-31, 00:48:05,VALID,1002.22,VALID,0,INVALID,163.685,VALID,0.100563,VALID,23.9353,VALID,5,VALID,0.305859,
2011-01-31, 00:49:05,VALID,1002.19,VALID,0,INVALID,163.716,VALID,0.100563,VALID,23.9742,VALID,5,VALID,0.263672,
2011-01-31, 00:50:05,VALID,1002.2,VALID,0,INVALID,163.723,VALID,0,VALID,23.9919,VALID,5,VALID,0.232422,
2011-01-31, 00:51:05,VALID,1002.2,VALID,0,INVALID,163.716,VALID,0.100563,VALID,24.0326,VALID,5,VALID,0.0304688,
2011-01-31, 00:52:05,VALID,1002.23,VALID,0,INVALID,163.701,VALID,0.100563,VALID,24.0521,VALID,5,VALID,0,
2011-01-31, 00:53:05,VALID,1002.24,VALID,0,INVALID,163.693,VALID,0.100563,VALID,24.0716,VALID,5,VALID,0,
2011-01-31, 00:54:05,VALID,1002.26,VALID,0,INVALID,163.701,VALID,0.100563,VALID,24.0697,VALID,5,VALID,0,
2011-01-31, 00:55:05,VALID,1002.25,VALID,0,INVALID,163.708,VALID,0.100563,VALID,24.1105,VALID,5,VALID,0,
2011-01-31, 00:56:05,VALID,1002.24,VALID,0,INVALID,163.693,VALID,0,VALID,24.13,VALID,5,VALID,0.344922,
2011-01-31, 00:57:05,VALID,1002.18,VALID,0,INVALID,163.67,VALID,0,VALID,24.1494,VALID,5,VALID,0.528906,
2011-01-31, 00:58:05,VALID,1002.19,VALID,0,INVALID,163.708,VALID,0.100563,VALID,24.1884,VALID,5,VALID,0.6375,
2011-01-31, 00:59:05,VALID,1002.12,VALID,0,INVALID,163.678,VALID,0,VALID,24.1689,VALID,5,VALID,0.640234,
2011-01-31, 01:00:05,VALID,1002.1,VALID,0,INVALID,163.685,VALID,0.100563,VALID,24.1884,VALID,5,VALID,0.247266,
2011-01-31, 01:01:05,VALID,1002.11,VALID,0,INVALID,163.685,VALID,0,VALID,24.1884,VALID,5,VALID,0,
2011-01-31, 01:02:05,VALID,1002.11,VALID,0,INVALID,163.701,VALID,0,VALID,24.2078,VALID,5,VALID,0,
2011-01-31, 01:03:05,VALID,1002.12,VALID,0,INVALID,163.655,VALID,0,VALID,24.2273,VALID,5,VALID,0,
2011-01-31, 01:04:05,VALID,1002.06,VALID,0,INVALID,163.67,VALID,0.100563,VALID,24.2662,VALID,5,VALID,0,
2011-01-31, 01:05:05,VALID,1002.08,VALID,0,INVALID,163.678,VALID,0.100563,VALID,24.2644,VALID,5,VALID,0,
2011-01-31, 01:06:05,VALID,1002.07,VALID,0,INVALID,163.678,VALID,0.100563,VALID,24.3052,VALID,5,VALID,0,
2011-01-31, 01:07:05,VALID,1002.07,VALID,0,INVALID,163.67,VALID,0.100563,VALID,24.3246,VALID,5,VALID,0,
2011-01-31, 01:08:05,VALID,1002.07,VALID,0,INVALID,163.685,VALID,0,VALID,24.3441,VALID,5,VALID,0,
2011-01-31, 01:09:05,VALID,1002.03,VALID,0,INVALID,163.67,VALID,0.100563,VALID,24.3441,VALID,5,VALID,0,
2011-01-31, 01:10:05,VALID,1002.01,VALID,0,INVALID,163.693,VALID,0,VALID,24.307,VALID,5,VALID,0.133594,
2011-01-31, 01:11:05,VALID,1002.02,VALID,0,INVALID,163.685,VALID,0,VALID,24.307,VALID,5,VALID,0.141016,
2011-01-31, 01:12:05,VALID,1002.03,VALID,0,INVALID,163.662,VALID,0,VALID,24.3265,VALID,5,VALID,0.157031,
2011-01-31, 01:13:05,VALID,1002.02,VALID,0,INVALID,163.647,VALID,0,VALID,24.3478,VALID,5,VALID,0,
2011-01-31, 01:14:05,VALID,1002.06,VALID,0,INVALID,163.655,VALID,0,VALID,24.3052,VALID,5,VALID,0,
2011-01-31, 01:15:05,VALID,1002.11,VALID,0,INVALID,163.662,VALID,0,VALID,24.3673,VALID,87,VALID,0.845312,
2011-01-31, 01:16:05,VALID,1002.2,VALID,0,INVALID,163.693,VALID,0,VALID,24.4062,VALID,187,VALID,1.00117,
2011-01-31, 01:17:05,VALID,1002.18,VALID,0,INVALID,163.701,VALID,0,VALID,24.3654,VALID,219,VALID,0.241406,
2011-01-31, 01:18:05,VALID,1002.26,VALID,0,INVALID,163.647,VALID,0,VALID,24.4062,VALID,219,VALID,0.203906,
2011-01-31, 01:19:05,VALID,1002.23,VALID,0,INVALID,163.662,VALID,0,VALID,24.4062,VALID,211,VALID,0.597656,
2011-01-31, 01:20:05,VALID,1002.26,VALID,0,INVALID,163.662,VALID,0,VALID,24.3867,VALID,200,VALID,0.666016,
2011-01-31, 01:21:05,VALID,1002.25,VALID,0,INVALID,163.67,VALID,0,VALID,24.4043,VALID,140,VALID,0.890234,
2011-01-31, 01:22:05,VALID,1002.24,VALID,0,INVALID,163.678,VALID,0,VALID,24.4841,VALID,155,VALID,0.959766,
2011-01-31, 01:23:05,VALID,1002.18,VALID,0,INVALID,163.632,VALID,0,VALID,24.6009,VALID,147,VALID,1.20391,
2011-01-31, 01:24:05,VALID,1002.2,VALID,0,INVALID,163.632,VALID,0,VALID,24.6964,VALID,194,VALID,2.16953,
2011-01-31, 01:25:05,VALID,1002.23,VALID,0,INVALID,163.647,VALID,0,VALID,24.7529,VALID,167,VALID,0.589063,
2011-01-31, 01:26:05,VALID,1002.25,VALID,0,INVALID,163.624,VALID,0,VALID,24.8308,VALID,169,VALID,1.68711,
2011-01-31, 01:27:05,VALID,1002.28,VALID,0,INVALID,163.647,VALID,0,VALID,24.8697,VALID,193,VALID,0.810938,
2011-01-31, 01:28:05,VALID,1002.22,VALID,0,INVALID,163.632,VALID,0.100563,VALID,24.93,VALID,192,VALID,0.954687,
2011-01-31, 01:29:05,VALID,1002.22,VALID,0,INVALID,163.594,VALID,0,VALID,24.9282,VALID,235,VALID,1.10312,
2011-01-31, 01:30:05,VALID,1002.23,VALID,0,INVALID,163.632,VALID,0,VALID,24.969,VALID,206,VALID,0.158984,
2011-01-31, 01:31:05,VALID,1002.21,VALID,0,INVALID,163.624,VALID,0,VALID,24.9885,VALID,246,VALID,0.562109,
2011-01-31, 01:32:05,VALID,1002.18,VALID,0,INVALID,163.601,VALID,0,VALID,25.0079,VALID,268,VALID,0.402344,
2011-01-31, 01:33:05,VALID,1002.15,VALID,0,INVALID,163.624,VALID,0,VALID,25.0079,VALID,239,VALID,0.414844,
2011-01-31, 01:34:05,VALID,1002.17,VALID,0.5,INVALID,163.632,VALID,0,VALID,25.0255,VALID,254,VALID,0.195313,
2011-01-31, 01:35:05,VALID,1002.13,VALID,0,INVALID,163.624,VALID,0,VALID,25.006,VALID,202,VALID,0.247656,
2011-01-31, 01:36:05,VALID,1002.14,VALID,0,INVALID,163.617,VALID,0,VALID,25.0255,VALID,202,VALID,0.109766,
2011-01-31, 01:37:05,VALID,1002.14,VALID,0,INVALID,163.601,VALID,0,VALID,25.0663,VALID,203,VALID,0.273438,
2011-01-31, 01:38:05,VALID,1002.16,VALID,0,INVALID,163.609,VALID,0,VALID,25.0255,VALID,277,VALID,0.134375,
2011-01-31, 01:39:05,VALID,1002.14,VALID,0,INVALID,163.586,VALID,0,VALID,25.0663,VALID,277,VALID,0.126563,
2011-01-31, 01:40:05,VALID,1002.14,VALID,0,INVALID,163.617,VALID,0,VALID,25.1053,VALID,299,VALID,0.536719,
2011-01-31, 01:41:05,VALID,1002.13,VALID,0,INVALID,163.609,VALID,0,VALID,25.0858,VALID,311,VALID,0.363672,
2011-01-31, 01:42:05,VALID,1002.14,VALID,0,INVALID,163.601,VALID,0,VALID,25.1053,VALID,296,VALID,0.0703125,
2011-01-31, 01:43:05,VALID,1002.12,VALID,0,INVALID,163.609,VALID,0,VALID,25.1053,VALID,295,VALID,1.05078,
2011-01-31, 01:44:05,VALID,1002.11,VALID,0,INVALID,163.601,VALID,0,VALID,25.1053,VALID,297,VALID,0.553125,
2011-01-31, 01:45:05,VALID,1002.13,VALID,0,INVALID,163.624,VALID,0,VALID,25.1442,VALID,307,VALID,0.740625,
2011-01-31, 01:46:05,VALID,1002.14,VALID,0,INVALID,163.624,VALID,0,VALID,25.1248,VALID,331,VALID,0.375,
2011-01-31, 01:47:05,VALID,1002.15,VALID,0,INVALID,163.601,VALID,0,VALID,25.1423,VALID,295,VALID,1.88711,
2011-01-31, 01:48:05,VALID,1002.14,VALID,0,INVALID,163.617,VALID,0,VALID,25.1832,VALID,295,VALID,1.79805,
2011-01-31, 01:49:05,VALID,1002.17,VALID,0,INVALID,163.609,VALID,0,VALID,25.2416,VALID,300,VALID,1.57031,
2011-01-31, 01:50:05,VALID,1002.21,VALID,0,INVALID,163.601,VALID,0,VALID,25.2825,VALID,289,VALID,1.52188,
2011-01-31, 01:51:05,VALID,1002.21,VALID,0,INVALID,163.609,VALID,0,VALID,25.2397,VALID,295,VALID,1.45039,
2011-01-31, 01:52:05,VALID,1002.23,VALID,0,INVALID,163.563,VALID,0,VALID,25.2611,VALID,308,VALID,1.27383,
2011-01-31, 01:53:05,VALID,1002.21,VALID,0,INVALID,163.601,VALID,0,VALID,25.2027,VALID,287,VALID,2.0543,
2011-01-31, 01:54:05,VALID,1002.2,VALID,0,INVALID,163.586,VALID,0,VALID,25.2027,VALID,286,VALID,1.99102,
2011-01-31, 01:55:05,VALID,1002.24,VALID,0,INVALID,163.609,VALID,0,VALID,25.1637,VALID,352,VALID,0.856641,
2011-01-31, 01:56:05,VALID,1002.25,VALID,0,INVALID,163.617,VALID,0,VALID,25.1442,VALID,275,VALID,1.32773,
2011-01-31, 01:57:05,VALID,1002.29,VALID,0,INVALID,163.617,VALID,0,VALID,25.1442,VALID,292,VALID,1.62148,
2011-01-31, 01:58:05,VALID,1002.29,VALID,0,INVALID,163.639,VALID,0,VALID,25.1248,VALID,288,VALID,3.46992,
2011-01-31, 01:59:05,VALID,1002.28,VALID,0,INVALID,163.617,VALID,0,VALID,25.0858,VALID,299,VALID,1.43438,
2011-01-31, 02:00:05,VALID,1002.31,VALID,0,INVALID,163.617,VALID,0,VALID,25.0469,VALID,274,VALID,1.61133,
2011-01-31, 02:01:05,VALID,1002.34,VALID,0,INVALID,163.601,VALID,0,VALID,25.0469,VALID,280,VALID,0.967578,
2011-01-31, 02:02:05,VALID,1002.28,VALID,0,INVALID,163.609,VALID,0,VALID,25.0079,VALID,268,VALID,1.43516,
2011-01-31, 02:03:05,VALID,1002.32,VALID,0,INVALID,163.624,VALID,0,VALID,24.969,VALID,333,VALID,1.20625,
2011-01-31, 02:04:05,VALID,1002.3,VALID,0,INVALID,163.632,VALID,0,VALID,24.9495,VALID,290,VALID,1.08086,
2011-01-31, 02:05:05,VALID,1002.31,VALID,0,INVALID,163.617,VALID,0,VALID,24.9106,VALID,319,VALID,1.23984,
2011-01-31, 02:06:05,VALID,1002.3,VALID,0,INVALID,163.662,VALID,0,VALID,24.8503,VALID,331,VALID,1.27891,
2011-01-31, 02:07:05,VALID,1002.23,VALID,0,INVALID,163.632,VALID,0,VALID,24.7743,VALID,318,VALID,1.5082,
2011-01-31, 02:08:05,VALID,1002.22,VALID,0,INVALID,163.617,VALID,0,VALID,24.7159,VALID,341,VALID,0.702344,
2011-01-31, 02:09:05,VALID,1002.19,VALID,0,INVALID,163.632,VALID,0,VALID,24.6574,VALID,329,VALID,1.2625,
2011-01-31, 02:10:05,VALID,1002.18,VALID,0,INVALID,163.647,VALID,0,VALID,24.599,VALID,323,VALID,1.40078,
2011-01-31, 02:11:05,VALID,1002.09,VALID,0,INVALID,163.655,VALID,0,VALID,24.5017,VALID,348,VALID,1.46797,
2011-01-31, 02:12:05,VALID,1002.09,VALID,0,INVALID,163.662,VALID,0,VALID,24.4822,VALID,281,VALID,0.548047,
2011-01-31, 02:13:05,VALID,1002.04,VALID,0,INVALID,163.685,VALID,0,VALID,24.4238,VALID,261,VALID,0.611328,
2011-01-31, 02:14:05,VALID,1002.09,VALID,0,INVALID,163.662,VALID,0,VALID,24.4043,VALID,334,VALID,0.398828,
2011-01-31, 02:15:05,VALID,1002.11,VALID,0,INVALID,163.67,VALID,0,VALID,24.3459,VALID,301,VALID,0.642187,
2011-01-31, 02:16:05,VALID,1002.08,VALID,0,INVALID,163.67,VALID,0,VALID,24.307,VALID,294,VALID,0.604688,
2011-01-31, 02:17:05,VALID,1002.04,VALID,0,INVALID,163.685,VALID,0,VALID,24.2078,VALID,349,VALID,1.92305,
2011-01-31, 02:18:05,VALID,1002.09,VALID,0,INVALID,163.685,VALID,0,VALID,24.2097,VALID,335,VALID,0.623828,
2011-01-31, 02:19:05,VALID,1002.12,VALID,0,INVALID,163.685,VALID,0,VALID,24.1707,VALID,318,VALID,0.415234,
2011-01-31, 02:20:05,VALID,1002.11,VALID,0,INVALID,163.678,VALID,0,VALID,24.1513,VALID,319,VALID,0.417188,
2011-01-31, 02:21:05,VALID,1002.12,VALID,0,INVALID,163.685,VALID,0,VALID,24.0734,VALID,347,VALID,1.98125,
2011-01-31, 02:22:05,VALID,1002.12,VALID,0,INVALID,163.701,VALID,0,VALID,24.015,VALID,345,VALID,1.18789,
2011-01-31, 02:23:05,VALID,1002.16,VALID,0,INVALID,163.716,VALID,0,VALID,23.9566,VALID,266,VALID,0.635156,
2011-01-31, 02:24:05,VALID,1002.1,VALID,0,INVALID,163.716,VALID,0,VALID,23.8982,VALID,343,VALID,2.05039,
2011-01-31, 02:25:05,VALID,1002.15,VALID,0.5,INVALID,163.708,VALID,0,VALID,23.8593,VALID,355,VALID,1.85586,
2011-01-31, 02:26:05,VALID,1002.14,VALID,0,INVALID,163.754,VALID,0,VALID,23.7991,VALID,344,VALID,1.31055,
2011-01-31, 02:27:05,VALID,1002.16,VALID,0,INVALID,163.731,VALID,0,VALID,23.7619,VALID,351,VALID,1.39023,
2011-01-31, 02:28:05,VALID,1002.19,VALID,0,INVALID,163.723,VALID,0.100563,VALID,23.7407,VALID,328,VALID,0.764453,
2011-01-31, 02:29:05,VALID,1002.16,VALID,0,INVALID,163.716,VALID,0,VALID,23.7425,VALID,332,VALID,0.892969,
2011-01-31, 02:30:05,VALID,1002.16,VALID,0,INVALID,163.716,VALID,0,VALID,23.7035,VALID,353,VALID,1.06953,
2011-01-31, 02:31:05,VALID,1002.16,VALID,0,INVALID,163.723,VALID,0,VALID,23.6434,VALID,341,VALID,1.09141,
2011-01-31, 02:32:05,VALID,1002.14,VALID,0,INVALID,163.708,VALID,0,VALID,23.6452,VALID,1,VALID,0.361719,
2011-01-31, 02:33:05,VALID,1002.13,VALID,0,INVALID,163.716,VALID,0,VALID,23.6257,VALID,341,VALID,1.34492,
2011-01-31, 02:34:05,VALID,1002.13,VALID,0,INVALID,163.746,VALID,0,VALID,23.6062,VALID,347,VALID,1.87695,
2011-01-31, 02:35:05,VALID,1002.12,VALID,0,INVALID,163.716,VALID,0,VALID,23.546,VALID,360,VALID,0.893359,
2011-01-31, 02:36:05,VALID,1002.15,VALID,0,INVALID,163.754,VALID,0.100563,VALID,23.546,VALID,351,VALID,0.217578,
2011-01-31, 02:37:05,VALID,1002.12,VALID,0,INVALID,163.739,VALID,0,VALID,23.546,VALID,357,VALID,1.11172,
2011-01-31, 02:38:05,VALID,1002.12,VALID,0,INVALID,163.769,VALID,0,VALID,23.5673,VALID,299,VALID,0.574219,
2011-01-31, 02:39:05,VALID,1002.08,VALID,0,INVALID,163.739,VALID,0,VALID,23.5266,VALID,333,VALID,0.933203,
2011-01-31, 02:40:05,VALID,1002.04,VALID,0,INVALID,163.723,VALID,0,VALID,23.5478,VALID,334,VALID,1.22891,
2011-01-31, 02:41:05,VALID,1002,VALID,0,INVALID,163.739,VALID,0,VALID,23.5266,VALID,16,VALID,0.921484,
2011-01-31, 02:42:05,VALID,1002.03,VALID,0,INVALID,163.739,VALID,0,VALID,23.5284,VALID,13,VALID,0.823828,
2011-01-31, 02:43:05,VALID,1002.05,VALID,0,INVALID,163.701,VALID,0.100563,VALID,23.5071,VALID,350,VALID,1.27383,
2011-01-31, 02:44:05,VALID,1002.03,VALID,0,INVALID,163.716,VALID,0,VALID,23.5071,VALID,317,VALID,0.280859,
2011-01-31, 02:45:05,VALID,1002.06,VALID,0,INVALID,163.746,VALID,0,VALID,23.5266,VALID,329,VALID,1.03125,
2011-01-31, 02:46:05,VALID,1002.05,VALID,0,INVALID,163.762,VALID,0,VALID,23.5266,VALID,337,VALID,0.859766,
2011-01-31, 02:47:05,VALID,1002.03,VALID,0,INVALID,163.762,VALID,0,VALID,23.546,VALID,319,VALID,0.989453,
2011-01-31, 02:48:05,VALID,1002.04,VALID,0,INVALID,163.723,VALID,0,VALID,23.5673,VALID,312,VALID,0.569922,
2011-01-31, 02:49:05,VALID,1002.02,VALID,0,INVALID,163.716,VALID,0,VALID,23.5443,VALID,347,VALID,0.478906,
2011-01-31, 02:50:05,VALID,1001.96,VALID,0.5,INVALID,163.746,VALID,0.100563,VALID,23.5655,VALID,352,VALID,0.682031,
2011-01-31, 02:51:05,VALID,1001.91,VALID,0,INVALID,163.739,VALID,0.100563,VALID,23.546,VALID,352,VALID,0.866797,
2011-01-31, 02:52:05,VALID,1001.89,VALID,0,INVALID,163.723,VALID,0,VALID,23.5868,VALID,352,VALID,1.49219,
2011-01-31, 02:53:05,VALID,1001.86,VALID,0,INVALID,163.739,VALID,0,VALID,23.5655,VALID,353,VALID,1.0293,
2011-01-31, 02:54:05,VALID,1001.87,VALID,0.5,INVALID,163.731,VALID,0,VALID,23.5868,VALID,323,VALID,0.416016,
2011-01-31, 02:55:05,VALID,1001.91,VALID,0,INVALID,163.754,VALID,0,VALID,23.585,VALID,297,VALID,0.157813,
2011-01-31, 02:56:05,VALID,1001.9,VALID,0,INVALID,163.716,VALID,0,VALID,23.6044,VALID,297,VALID,0.236719,
2011-01-31, 02:57:05,VALID,1001.79,VALID,0,INVALID,163.723,VALID,0,VALID,23.6257,VALID,355,VALID,0.666016,
2011-01-31, 02:58:05,VALID,1001.77,VALID,0,INVALID,163.731,VALID,0.100563,VALID,23.6044,VALID,20,VALID,0.827734,
2011-01-31, 02:59:05,VALID,1001.72,VALID,0,INVALID,163.716,VALID,0,VALID,23.6239,VALID,357,VALID,0.564062,
2011-01-31, 03:00:05,VALID,1001.71,VALID,0,INVALID,163.739,VALID,0,VALID,23.6434,VALID,12,VALID,0.44375,
2011-01-31, 03:01:05,VALID,1001.67,VALID,0,INVALID,163.723,VALID,0.100563,VALID,23.6416,VALID,358,VALID,0.670703,
2011-01-31, 03:02:05,VALID,1001.68,VALID,0,INVALID,163.716,VALID,0,VALID,23.7212,VALID,353,VALID,0.973828,
2011-01-31, 03:03:05,VALID,1001.68,VALID,0,INVALID,163.746,VALID,0,VALID,23.7407,VALID,354,VALID,0.334766,
2011-01-31, 03:04:05,VALID,1001.66,VALID,0,INVALID,163.716,VALID,0,VALID,23.7796,VALID,287,VALID,0.165625,
2011-01-31, 03:05:05,VALID,1001.69,VALID,0,INVALID,163.746,VALID,0,VALID,23.7991,VALID,294,VALID,0.414063,
2011-01-31, 03:06:05,VALID,1001.66,VALID,0,INVALID,163.716,VALID,0,VALID,23.838,VALID,360,VALID,0.542578,
2011-01-31, 03:07:05,VALID,1001.71,VALID,0,INVALID,163.739,VALID,0,VALID,23.8575,VALID,293,VALID,1.0582,
2011-01-31, 03:08:04,VALID,1001.63,VALID,0,INVALID,163.723,VALID,0,VALID,23.9177,VALID,6,VALID,1.01055,
2011-01-31, 03:09:04,VALID,1001.66,VALID,0.5,INVALID,163.716,VALID,0,VALID,23.9548,VALID,280,VALID,0.757813,
2011-01-31, 03:10:04,VALID,1001.66,VALID,0,INVALID,163.716,VALID,0,VALID,23.9548,VALID,7,VALID,0.550781,
2011-01-31, 03:11:04,VALID,1001.65,VALID,0,INVALID,163.723,VALID,0,VALID,24.015,VALID,240,VALID,0.328516,
2011-01-31, 03:12:04,VALID,1001.64,VALID,0,INVALID,163.716,VALID,0,VALID,24.0132,VALID,221,VALID,0.279297,
2011-01-31, 03:13:04,VALID,1001.66,VALID,0,INVALID,163.708,VALID,0,VALID,24.0929,VALID,262,VALID,0.309375,
2011-01-31, 03:14:04,VALID,1001.65,VALID,0,INVALID,163.701,VALID,0,VALID,24.1494,VALID,266,VALID,0.670313,
2011-01-31, 03:15:04,VALID,1001.66,VALID,0,INVALID,163.701,VALID,0,VALID,24.2291,VALID,254,VALID,0.312109,
2011-01-31, 03:16:04,VALID,1001.71,VALID,0,INVALID,163.662,VALID,0,VALID,24.2468,VALID,262,VALID,0.171094,
2011-01-31, 03:17:04,VALID,1001.69,VALID,0,INVALID,163.67,VALID,0,VALID,24.307,VALID,262,VALID,0.175,
2011-01-31, 03:18:04,VALID,1001.67,VALID,0,INVALID,163.716,VALID,0,VALID,24.2857,VALID,286,VALID,0.653516,
2011-01-31, 03:19:04,VALID,1001.64,VALID,0,INVALID,163.678,VALID,0,VALID,24.2644,VALID,294,VALID,0.100781,
2011-01-31, 03:20:04,VALID,1001.6,VALID,0,INVALID,163.685,VALID,0,VALID,24.3052,VALID,294,VALID,0.276953,
2011-01-31, 03:21:04,VALID,1001.56,VALID,0,INVALID,163.693,VALID,0,VALID,24.2857,VALID,341,VALID,0.630859,
2011-01-31, 03:22:04,VALID,1001.54,VALID,0,INVALID,163.678,VALID,0,VALID,24.3265,VALID,357,VALID,0.886328,
2011-01-31, 03:23:04,VALID,1001.52,VALID,0,INVALID,163.693,VALID,0,VALID,24.3052,VALID,355,VALID,0.837891,
2011-01-31, 03:24:04,VALID,1001.51,VALID,0,INVALID,163.685,VALID,0,VALID,24.2875,VALID,338,VALID,0.499219,
2011-01-31, 03:25:04,VALID,1001.51,VALID,0,INVALID,163.678,VALID,0,VALID,24.2662,VALID,340,VALID,0.315234,
2011-01-31, 03:26:04,VALID,1001.47,VALID,0,INVALID,163.701,VALID,0,VALID,24.2662,VALID,350,VALID,0.682031,
2011-01-31, 03:27:04,VALID,1001.42,VALID,0,INVALID,163.655,VALID,0,VALID,24.3246,VALID,355,VALID,1.0082,
2011-01-31, 03:28:04,VALID,1001.4,VALID,0,INVALID,163.693,VALID,0,VALID,24.3441,VALID,353,VALID,1.25898,
2011-01-31, 03:29:04,VALID,1001.4,VALID,0,INVALID,163.708,VALID,0,VALID,24.3459,VALID,5,VALID,0.514063,
2011-01-31, 03:30:04,VALID,1001.39,VALID,0,INVALID,163.708,VALID,0,VALID,24.3459,VALID,337,VALID,0.392188,
2011-01-31, 03:31:04,VALID,1001.36,VALID,0,INVALID,163.693,VALID,0,VALID,24.3246,VALID,336,VALID,0.345313,
2011-01-31, 03:32:04,VALID,1001.34,VALID,0,INVALID,163.701,VALID,0,VALID,24.3459,VALID,336,VALID,0.157813,
2011-01-31, 03:33:04,VALID,1001.31,VALID,0,INVALID,163.67,VALID,0,VALID,24.3246,VALID,336,VALID,0.0113281,
2011-01-31, 03:34:04,VALID,1001.26,VALID,0,INVALID,163.708,VALID,0,VALID,24.3459,VALID,354,VALID,0.640625,
2011-01-31, 03:35:04,VALID,1001.24,VALID,0,INVALID,163.67,VALID,0,VALID,24.3441,VALID,8,VALID,0.370703,
2011-01-31, 03:36:04,VALID,1001.21,VALID,0,INVALID,163.67,VALID,0,VALID,24.3636,VALID,8,VALID,0.166797,
2011-01-31, 03:37:04,VALID,1001.21,VALID,0,INVALID,163.701,VALID,0,VALID,24.3849,VALID,8,VALID,0.40625,
2011-01-31, 03:38:04,VALID,1001.2,VALID,0,INVALID,163.662,VALID,0,VALID,24.3849,VALID,8,VALID,0.05625,
2011-01-31, 03:39:04,VALID,1001.17,VALID,0,INVALID,163.639,VALID,0,VALID,24.3636,VALID,8,VALID,0.147266,
2011-01-31, 03:40:04,VALID,1001.16,VALID,0,INVALID,163.693,VALID,0,VALID,24.3654,VALID,8,VALID,0.227734,